DW7281 Weather Reports


Display with metric or nautical units.
time (UTC)temp
F
wind
direction
speed
MPH
gust
MPH
rain 1hr
in
rain 24hr
in
rain mn
in
humidity
%
barometer
mb
20260831103104 55 25 4.0 14.0 0.00 0.00 0.00 83 1032.7
20260831101557 55 13 4.0 16.0 0.00 0.00 0.00 83 1032.4
20260831100051 56 24 2.0 11.0 0.00 0.00 0.00 82 1032.4
20260831094604 56 25 3.0 11.0 0.00 0.00 0.00 82 1032.3
20260831093058 56 36 3.0 12.0 0.00 0.00 0.00 82 1032.3
20260831091559 57 18 4.0 11.0 0.00 0.00 0.00 81 1031.9
20260831090049 57 11 4.0 13.0 0.00 0.00 0.00 80 1031.7
20260831084608 58 18 2.0 13.0 0.00 0.00 0.00 79 1031.3
20260831083057 59 26 3.0 12.0 0.00 0.00 0.00 77 1031.2
20260831081604 60 39 4.0 16.0 0.00 0.00 0.00 73 1031.2
20260831080135 61 32 2.0 9.0 0.00 0.00 0.00 65 1031.0
20260831074606 62 32 2.0 10.0 0.00 0.00 0.00 61 1030.9
20260831073113 63 24 3.0 9.0 0.00 0.00 0.00 58 1030.9
20260831071559 64 38 1.0 9.0 0.00 0.00 0.00 55 1030.8
20260831070058 65 0 0.0 7.0 0.00 0.00 0.00 54 1030.6
20260831064556 65 0 0.0 6.0 0.00 0.00 0.00 52 1030.6
20260831063106 66 67 3.0 10.0 0.00 0.00 0.00 49 1030.5
20260831061557 67 23 2.0 11.0 0.00 0.00 0.00 50 1030.3
20260831060101 66 54 0.0 8.0 0.00 0.00 0.00 52 1030.2
20260831054553 67 0 1.0 10.0 0.00 0.00 0.00 49 1030.1
20260831053058 67 0 1.0 11.0 0.00 0.00 0.00 51 1030.0
20260831051556 67 21 1.0 11.0 0.00 0.00 0.00 50 1030.3
20260831050103 67 360 3.0 12.0 0.00 0.00 0.00 51 1030.3
20260831044602 68 36 3.0 12.0 0.00 0.00 0.00 49 1030.4
20260831043057 67 19 0.0 6.0 0.00 0.00 0.00 50 1030.5
20260831041606 68 37 4.0 12.0 0.00 0.00 0.00 49 1030.7
20260831040107 69 20 2.0 9.0 0.00 0.00 0.00 46 1031.0
20260831034604 68 16 2.0 12.0 0.00 0.00 0.00 50 1031.0
20260831033055 68 0 3.0 13.0 0.00 0.00 0.00 50 1031.2
20260831031549 68 34 4.0 13.0 0.00 0.00 0.00 52 1031.3
20260831024559 66 32 2.0 14.0 0.00 0.00 0.00 54 1031.4
20260831023050 66 40 3.0 14.0 0.00 0.00 0.00 55 1031.5
20260831021550 66 0 3.0 13.0 0.00 0.00 0.00 56 1031.6
20260831014551 66 40 2.0 10.0 0.00 0.00 0.00 56 1031.9
20260831013106 65 15 4.0 13.0 0.00 0.00 0.00 59 1032.1
20260831011601 64 49 4.0 12.0 0.00 0.00 0.00 59 1032.1
20260831010112 64 67 4.0 13.0 0.00 0.00 0.00 60 1032.2
20260831004558 63 34 4.0 17.0 0.00 0.00 0.00 59 1032.4
20260831003104 63 32 3.0 14.0 0.00 0.00 0.00 60 1032.6
20260831001555 63 11 4.0 14.0 0.00 0.00 0.00 61 1032.8
20260831000053 62 38 4.0 13.0 0.00 0.00 0.00 62 1032.9
20260830234550 61 30 8.0 13.0 0.00 0.00 0.00 63 1033.0
20260830233057 60 84 4.0 13.0 0.00 0.00 0.00 66 1033.0
20260830231550 60 38 3.0 14.0 0.00 0.00 0.00 67 1032.7
20260830230050 59 57 5.0 15.0 0.00 0.00 0.00 67 1032.8
20260830224607 58 37 5.0 11.0 0.00 0.00 0.00 70 1032.8
20260830223056 57 40 4.0 12.0 0.00 0.00 0.00 73 1032.8
20260830221550 56 36 4.0 10.0 0.00 0.00 0.00 75 1032.7
20260830220104 55 44 3.0 10.0 0.00 0.00 0.00 77 1032.7
20260830214557 55 45 3.0 10.0 0.00 0.00 0.00 78 1032.6
20260830213054 54 54 3.0 10.0 0.00 0.00 0.00 80 1032.3
20260830211558 53 41 4.0 10.0 0.00 0.00 0.00 81 1032.3
20260830210058 51 44 2.0 8.0 0.00 0.00 0.00 83 1032.1
20260830204550 50 70 2.0 7.0 0.00 0.00 0.00 85 1032.1
20260830203100 49 0 0.0 4.0 0.00 0.00 0.00 86 1032.0
20260830201600 48 46 0.0 4.0 0.00 0.00 0.00 86 1031.9
20260830200055 48 0 0.0 5.0 0.00 0.00 0.00 86 1031.6
20260830194604 48 58 0.0 5.0 0.00 0.00 0.00 86 1031.5
20260830193050 48 0 1.0 5.0 0.00 0.00 0.00 86 1031.4
20260830191603 48 51 0.0 3.0 0.00 0.00 0.00 86 1031.2
20260830190054 48 0 0.0 4.0 0.00 0.00 0.00 86 1031.3
20260830184558 48 0 0.0 3.0 0.00 0.00 0.00 86 1031.1
20260830183100 49 0 0.0 3.0 0.00 0.00 0.00 86 1031.1
20260830181553 49 0 0.0 3.0 0.00 0.00 0.00 86 1031.1
20260830180103 49 43 0.0 5.0 0.00 0.00 0.00 86 1031.2
20260830174636 49 0 0.0 5.0 0.00 0.00 0.00 86 1031.2
20260830173059 49 41 1.0 5.0 0.00 0.00 0.00 87 1031.3
20260830171607 49 98 1.0 7.0 0.00 0.00 0.00 87 1031.4
20260830170059 49 13 1.0 5.0 0.00 0.00 0.00 87 1031.3
20260830164601 49 0 1.0 6.0 0.00 0.00 0.00 87 1031.2
20260830163100 49 67 2.0 5.0 0.00 0.00 0.00 86 1031.2
20260830161604 50 20 2.0 8.0 0.00 0.00 0.00 86 1031.3
20260830160052 50 22 2.0 9.0 0.00 0.00 0.00 87 1031.3
20260830154559 50 57 1.0 9.0 0.00 0.00 0.00 87 1031.5
20260830153103 50 32 2.0 8.0 0.00 0.00 0.00 87 1031.5
20260830151557 50 33 2.0 10.0 0.00 0.00 0.00 86 1031.6
20260830150049 50 22 2.0 9.0 0.00 0.00 0.00 86 1031.7
20260830144600 51 28 2.0 8.0 0.00 0.00 0.00 86 1031.9
20260830143052 51 34 1.0 9.0 0.00 0.00 0.00 86 1032.0
20260830141557 51 0 2.0 10.0 0.00 0.00 0.00 85 1032.0
20260830140114 51 42 2.0 8.0 0.00 0.00 0.00 85 1032.1
20260830134547 52 0 2.0 8.0 0.00 0.00 0.00 85 1032.1
20260830133055 52 45 3.0 10.0 0.00 0.00 0.00 85 1032.1
20260830131607 52 26 1.0 9.0 0.00 0.00 0.00 85 1032.0
20260830124558 53 0 1.0 10.0 0.00 0.00 0.00 85 1032.0
20260830123059 53 9 3.0 10.0 0.00 0.00 0.00 85 1032.1
20260830121601 53 24 4.0 13.0 0.00 0.00 0.00 85 1031.9
20260830120107 53 39 3.0 14.0 0.00 0.00 0.00 85 1032.0
20260830114557 54 40 4.0 9.0 0.00 0.00 0.00 85 1031.9
20260830113054 54 39 4.0 11.0 0.00 0.00 0.00 85 1031.9
20260830111557 54 20 3.0 9.0 0.00 0.00 0.00 85 1032.0
20260830110100 55 61 3.0 9.0 0.00 0.00 0.00 84 1032.1
20260830104602 55 36 2.0 9.0 0.00 0.00 0.00 84 1031.7